Location: Newark
(25.4800°N, 85.7200°E)
Time: 19:35:25
(UTC+00:00)

Vanguard 1 Rocket - Pass Details

Date: 28 August 2019
Orbit: 651 x 4225 km, 34.3° (Epoch: 20 September)

Event Time Altitude Azimuth Distance (km) Brightness Sun altitude
Rises 23:40:45 0° 294° (WNW) 3,185 9.7 -4.2°
Reaches altitude 10° 23:42:43 10° 294° (WNW) 2,416 9.1 -3.8°
Maximum altitude 23:48:14 85° 206° (SSW) 1,130 7.9 -2.6°
Drops below altitude 10° 23:58:21 10° 118° (ESE) 4,281 11.7 -0.4°
Sets 00:03:00 0° 118° (ESE) 5,866 12.5 0.7°
